Location: Austin
(30.3000°N, 97.7500°W)
Time: 05:38:13
(UTC-05:00)

Cosmos 2082 Rocket - Pass Details

Date: 16 June 2025
Orbit: 831 x 854 km, 71.0° (Epoch: 07 July)

Event Time Altitude Azimuth Distance (km) Brightness Sun altitude
Rises 03:22:14 0° 350° (N) 3,417 6.1 -30.2°
Reaches altitude 10° 03:24:54 10° 359° (N) 2,481 5.3 -29.9°
Maximum altitude 03:30:06 35° 65° (ENE) 1,336 3.6 -29.3°
Enters shadow 03:34:01 16° 124° (ESE) 2,069 4.2 -28.8°
